When you browse on this site, cookies collect data to enhance your experience and personalize the content and advertising you see.
Visit our Privacy Policy to learn more. By continuing to use the site, you agree to this use of cookies and data.
  • In United Kingdom
  • List of Countries
  • For 7 days
  • Water Temperature
  • Weather Map
  • Weather Widgets
  • user-avatar
    Login

    Hourly Weather Zalaegerszeg

    Today, 5 April, Sunday

    Time Temperature Precipitation Wind Pressure Humidity
    00:00 +5°C° 0 mm 3 mps 756 mmHg 69%
    01:00 +4°C° 0 mm 3 mps 756 mmHg 69%
    02:00 +4°C° 0 mm 3 mps 756 mmHg 70%
    03:00 +3°C° 0 mm 3 mps 756 mmHg 71%
    04:00 +3°C° 0 mm 3 mps 756 mmHg 73%
    05:00 +4°C° 0 mm 3 mps 756 mmHg 71%
    06:00 +4°C° 0 mm 3 mps 756 mmHg 69%
    07:00 +5°C° 0 mm 3 mps 757 mmHg 67%
    08:00 +8°C° 0 mm 3 mps 757 mmHg 60%
    09:00 +10°C° 0 mm 3 mps 757 mmHg 53%
    10:00 +12°C° 0 mm 3 mps 757 mmHg 46%
    11:00 +13°C° 0 mm 3 mps 757 mmHg 44%
    12:00 +16°C° 0 mm 3 mps 756 mmHg 43%
    13:00 +17°C° 0 mm 3 mps 756 mmHg 41%
    14:00 +17°C° 0 mm 3 mps 756 mmHg 43%
    15:00 +17°C° 0 mm 3 mps 756 mmHg 45%
    16:00 +17°C° 0 mm 3 mps 755 mmHg 46%
    17:00 +14°C° 0 mm 3 mps 756 mmHg 53%
    18:00 +12°C° 0 mm 3 mps 756 mmHg 61%
    19:00 +12°C° 0 mm 2 mps 756 mmHg 68%
    20:00 +10°C° 0 mm 2 mps 756 mmHg 71%
    21:00 +9°C° 0 mm 2 mps 757 mmHg 73%
    22:00 +9°C° 0 mm 2 mps 757 mmHg 76%
    23:00 +8°C° 0 mm 2 mps 757 mmHg 77%

    Tomorrow, 6 April, Monday

    Time Temperature Precipitation Wind Pressure Humidity
    00:00 +8°C° 0 mm 2 mps 757 mmHg 79%
    01:00 +7°C° 0 mm 2 mps 757 mmHg 80%
    02:00 +7°C° 0 mm 2 mps 757 mmHg 82%
    03:00 +6°C° 0 mm 2 mps 757 mmHg 83%
    04:00 +7°C° 0 mm 1 mps 757 mmHg 85%
    05:00 +6°C° 0 mm 2 mps 758 mmHg 82%
    06:00 +7°C° 0 mm 2 mps 758 mmHg 79%
    07:00 +8°C° 0 mm 2 mps 758 mmHg 75%
    08:00 +10°C° 0 mm 3 mps 758 mmHg 64%
    09:00 +12°C° 0 mm 4 mps 759 mmHg 52%
    10:00 +14°C° 0 mm 5 mps 759 mmHg 41%
    11:00 +15°C° 0 mm 5 mps 759 mmHg 39%
    12:00 +15°C° 0 mm 5 mps 759 mmHg 38%
    13:00 +16°C° 0 mm 5 mps 758 mmHg 37%
    14:00 +16°C° 0 mm 5 mps 758 mmHg 38%
    15:00 +16°C° 0 mm 5 mps 758 mmHg 39%
    16:00 +15°C° 0 mm 5 mps 758 mmHg 40%
    17:00 +14°C° 0 mm 4 mps 758 mmHg 45%
    18:00 +12°C° 0 mm 3 mps 758 mmHg 49%
    19:00 +10°C° 0 mm 2 mps 759 mmHg 54%
    20:00 +9°C° 0 mm 2 mps 759 mmHg 56%
    21:00 +9°C° 0 mm 1 mps 760 mmHg 58%
    22:00 +8°C° 0 mm 1 mps 760 mmHg 59%
    23:00 +8°C° 0 mm 1 mps 760 mmHg 62%

    Day after tomorrow, 7 April, Tuesday

    Time Temperature Precipitation Wind Pressure Humidity
    00:00 +7°C° 0 mm 1 mps 760 mmHg 64%
    01:00 +7°C° 0 mm 1 mps 760 mmHg 67%
    02:00 +6°C° 0 mm 1 mps 760 mmHg 68%
    03:00 +6°C° 0 mm 1 mps 760 mmHg 69%
    04:00 +5°C° 0 mm 1 mps 761 mmHg 70%
    05:00 +6°C° 0 mm 1 mps 761 mmHg 65%
    06:00 +7°C° 0 mm 1 mps 761 mmHg 61%
    07:00 +7°C° 0 mm 2 mps 761 mmHg 57%
    08:00 +9°C° 0 mm 2 mps 761 mmHg 49%
    09:00 +11°C° 0 mm 3 mps 761 mmHg 41%
    10:00 +13°C° 0 mm 3 mps 761 mmHg 33%
    11:00 +14°C° 0 mm 4 mps 761 mmHg 32%
    12:00 +15°C° 0 mm 4 mps 761 mmHg 31%
    13:00 +17°C° 0 mm 4 mps 760 mmHg 30%
    14:00 +17°C° 0 mm 4 mps 760 mmHg 31%
    15:00 +17°C° 0 mm 3 mps 760 mmHg 33%
    16:00 +17°C° 0 mm 3 mps 759 mmHg 34%
    17:00 +14°C° 0 mm 3 mps 759 mmHg 40%
    18:00 +13°C° 0 mm 2 mps 759 mmHg 46%
    19:00 +10°C° 0 mm 2 mps 759 mmHg 52%
    20:00 +10°C° 0 mm 1 mps 760 mmHg 55%
    21:00 +9°C° 0 mm 1 mps 760 mmHg 57%
    22:00 +9°C° 0 mm 1 mps 760 mmHg 60%
    23:00 +7°C° 0 mm 0 mps 760 mmHg 61%

    8 April, Wednesday

    Time Temperature Precipitation Wind Pressure Humidity
    00:00 +7°C° 0 mm 0 mps 760 mmHg 62%
    01:00 +6°C° 0 mm 0 mps 760 mmHg 63%
    02:00 +6°C° 0 mm 0 mps 760 mmHg 65%
    03:00 +6°C° 0 mm 0 mps 760 mmHg 66%
    04:00 +5°C° 0 mm 0 mps 760 mmHg 67%
    05:00 +6°C° 0 mm 0 mps 760 mmHg 65%
    06:00 +7°C° 0 mm 0 mps 760 mmHg 63%
    07:00 +8°C° 0 mm 0 mps 759 mmHg 60%
    08:00 +12°C° 0 mm 1 mps 759 mmHg 53%
    09:00 +14°C° 0 mm 1 mps 759 mmHg 46%
    10:00 +16°C° 0 mm 2 mps 759 mmHg 39%
    11:00 +17°C° 0 mm 2 mps 758 mmHg 37%
    12:00 +18°C° 0 mm 2 mps 758 mmHg 35%
    13:00 +19°C° 0 mm 2 mps 757 mmHg 33%
    14:00 +18°C° 0 mm 2 mps 757 mmHg 33%
    15:00 +18°C° 0 mm 2 mps 756 mmHg 34%
    16:00 +18°C° 0 mm 2 mps 756 mmHg 35%
    17:00 +16°C° 0 mm 2 mps 755 mmHg 41%
    18:00 +14°C° 0 mm 1 mps 755 mmHg 47%
    19:00 +12°C° 0 mm 1 mps 755 mmHg 54%
    20:00 +12°C° 0 mm 1 mps 755 mmHg 56%
    21:00 +11°C° 0 mm 1 mps 756 mmHg 58%
    22:00 +10°C° 0 mm 1 mps 756 mmHg 61%
    23:00 +10°C° 0 mm 1 mps 755 mmHg 62%

    9 April, Thursday

    Time Temperature Precipitation Wind Pressure Humidity
    00:00 +9°C° 0 mm 1 mps 755 mmHg 64%
    01:00 +9°C° 0 mm 1 mps 755 mmHg 66%
    02:00 +8°C° 0 mm 1 mps 754 mmHg 67%
    03:00 +8°C° 0 mm 1 mps 754 mmHg 68%
    04:00 +7°C° 0 mm 1 mps 754 mmHg 68%
    05:00 +8°C° 0 mm 1 mps 754 mmHg 66%
    06:00 +9°C° 0 mm 1 mps 754 mmHg 63%
    07:00 +11°C° 0 mm 1 mps 754 mmHg 61%
    08:00 +13°C° 0 mm 1 mps 754 mmHg 54%
    09:00 +15°C° 0 mm 1 mps 754 mmHg 47%
    10:00 +18°C° 0 mm 1 mps 754 mmHg 40%
    11:00 +18°C° 0 mm 2 mps 753 mmHg 37%
    12:00 +19°C° 0 mm 2 mps 753 mmHg 34%
    13:00 +20°C° 0 mm 2 mps 753 mmHg 31%
    14:00 +20°C° 0 mm 2 mps 752 mmHg 31%
    15:00 +21°C° 0 mm 1 mps 752 mmHg 31%
    16:00 +21°C° 0 mm 1 mps 751 mmHg 31%
    17:00 +19°C° 0 mm 1 mps 751 mmHg 36%
    18:00 +16°C° 0 mm 1 mps 751 mmHg 42%
    19:00 +14°C° 0 mm 1 mps 751 mmHg 47%
    20:00 +13°C° 0 mm 1 mps 752 mmHg 49%
    21:00 +13°C° 0 mm 1 mps 752 mmHg 50%
    22:00 +12°C° 0 mm 1 mps 752 mmHg 52%
    23:00 +12°C° 0 mm 1 mps 752 mmHg 53%

    10 April, Friday

    Time Temperature Precipitation Wind Pressure Humidity
    00:00 +12°C° 0 mm 2 mps 752 mmHg 53%
    01:00 +12°C° 0 mm 2 mps 753 mmHg 54%
    02:00 +12°C° 0 mm 2 mps 753 mmHg 59%
    03:00 +10°C° 0 mm 3 mps 753 mmHg 63%
    04:00 +10°C° 0 mm 3 mps 753 mmHg 68%
    05:00 +11°C° 0 mm 4 mps 753 mmHg 67%
    06:00 +11°C° 0 mm 4 mps 753 mmHg 67%
    07:00 +12°C° 0 mm 5 mps 754 mmHg 66%
    08:00 +13°C° 0 mm 5 mps 754 mmHg 61%
    09:00 +15°C° 0 mm 6 mps 754 mmHg 55%
    10:00 +16°C° 0 mm 6 mps 754 mmHg 50%
    11:00 +16°C° 0 mm 6 mps 754 mmHg 48%
    12:00 +17°C° 0 mm 5 mps 753 mmHg 46%
    13:00 +19°C° 0 mm 5 mps 753 mmHg 45%
    14:00 +19°C° 0 mm 5 mps 753 mmHg 45%
    15:00 +19°C° 0 mm 5 mps 753 mmHg 45%
    16:00 +18°C° 0 mm 4 mps 752 mmHg 45%
    17:00 +17°C° 0 mm 3 mps 752 mmHg 50%
    18:00 +15°C° 0 mm 2 mps 752 mmHg 55%
    19:00 +13°C° 0 mm 2 mps 752 mmHg 60%
    20:00 +12°C° 0 mm 1 mps 753 mmHg 63%
    21:00 +11°C° 0 mm 1 mps 753 mmHg 66%
    22:00 +10°C° 0 mm 1 mps 753 mmHg 68%
    23:00 +10°C° 0 mm 1 mps 753 mmHg 68%
    Show more